NSS-11 (AAP-1)

Last updated on Jan. 21, 2021, 6:16 a.m. UTC

1 26554U 00059A   21020.87408483  .00000033  00000-0  00000-0 0  9999
2 26554   0.0100  21.4906 0002718 273.4839 316.1227  1.00271799 21518
UTC
Height (km)
Latitude
Longitude
Inclination
Orbital Period
UTC large
Height (km)
Speed (km/s)
/
Latitude / Longitude
Inclination (degrees)
Orbital Period (minutes)
Azimuth
Elevation
Range (km)
Doppler Factor
iOS Compass Heading
iOS Angle

Next 30 passes for location: Hong Kong

Rise time Rise Azimuth (degrees) Set time Set Azimuth (degrees) Duration Max altitude (degrees)

No matching passes for this satellites